Preview of NWS' New Version of Forecast
This preview is not operational and should not be used for support decisions.

Regional Weather Roundup (RWR)

Issued by National Weather Service (NWS)

                            
000
ASUS46 KSEW 230110
RWRWA 

WASHINGTON REGIONAL WEATHER ROUNDUP
NATIONAL WEATHER SERVICE SEATTLE WA
600 PM PDT FRI MAR 22 2019

NOTE:"FAIR" INDICATES FEW OR NO CLOUDS BELOW 12,000 FEET WITH NO 
SIGNIFICANT WEATHER AND/OR OBSTRUCTIONS TO VISIBILITY.

WAZ507-509-555>559-230200-
SEATTLE, TACOMA, EVERETT, AND VICINITY
  
CITY           SKY/WX    TMP DP  RH WIND       PRES   REMARKS
EVERETT        CLOUDY    54  43  66 S14       29.95R                  
BOEING FIELD   CLOUDY    56  45  66 S6        29.95R                  
RENTON         LGT RAIN  57  43  59 S7        29.95R                  
SEATAC AIRPORT CLOUDY    55  43  63 SW9       29.95R                  
JBLM-MCCHORD   FAIR      55  48  76 S9        29.96R                  
PUYALLUP       FAIR      55  43  62 SW7G14    29.95S                  
BREMERTON      CLOUDY    52  45  77 S12       29.95R                  
JBLM-FT LEWIS  PTSUNNY   55  48  79 S13G20    29.95R                  
TACOMA NARROWS PTSUNNY   53  43  68 S13       29.96R                  
$$
 
WAZ001-503-506-510-514-515-230200-
NORTH INTERIOR
  
CITY           SKY/WX    TMP DP  RH WIND       PRES   REMARKS
BELLINGHAM     PTSUNNY   59  41  51 SE22      29.89R                  
FRIDAY HARBOR  FAIR      52  43  71 E8        29.88R                  
EASTSOUND      FAIR      55  45  67 S13G20    29.86F                  
PORT ANGELES   PTSUNNY   51  43  74 NE5       29.89R                  
EDIZ HOOK      FAIR      49  45  87 W6        29.89R                  
PORT TOWNSEND  FAIR      55  46  71 SE12G28   29.88R                  
NAS WHIDBEY    CLOUDY    58  44  60 S22       29.93R                  
ARLINGTON      CLOUDY    56  44  64 S10       29.95R                  
BURLINGTON     MOSUNNY   57  45  62 SE8G23    29.91S                  
$$
 
WAZ020-022-039-040-504-511-512-230200-
SOUTHWEST INTERIOR
  
CITY           SKY/WX    TMP DP  RH WIND       PRES   REMARKS
SHELTON        LGT RAIN  51  47  86 SW12      29.95R                  
OLYMPIA        PTSUNNY   52  45  77 S13       29.97R                  
CHEHALIS       CLOUDY    54  48  82 S10G17    29.98R                  
KELSO          CLOUDY    53  47  79 S8        29.99R                  
VANCOUVER      CLOUDY    55  46  71 CALM      29.99R                  
SCAPPOOSE, OR  LGT RAIN  55  48  77 VRB5      29.99R                  
PORTLAND, OR   CLOUDY    55  47  74 CALM      30.00R                  
$$
 
WAZ021-516-517-230200-
WASHINGTON COAST
  
CITY           SKY/WX    TMP DP  RH WIND       PRES   REMARKS
FORKS          CLOUDY    48  47  96 SW10      29.93R                  
HOQUIAM        CLOUDY    52  49  89 S9        29.97R                  
ASTORIA, OR    PTSUNNY   51  47  86 SW8       29.98R                  
$$
 
WAZ019-023-024-040-567>569-230200-
CASCADE MOUNTAINS AND COLUMBIA GORGE
  
CITY           SKY/WX    TMP DP  RH WIND       PRES   REMARKS
STAMPEDE PASS  NOT AVBL                                               
TROUTDALE, OR  CLOUDY    54  48  80 NE3       30.00R                  
HOOD RIVER, OR LGT RAIN  54  41  62 CALM      29.99R                  
THE DALLES, OR CLOUDY    57  40  52 W13       29.97R                  
$$

WAZ026-027-041>044-520-521-230200-
EAST SLOPES
  
CITY           SKY/WX    TMP DP  RH WIND       PRES   REMARKS
OMAK           FAIR      55  40  56 S8        29.88R                  
WENATCHEE      FAIR      56  41  57 S3        29.87R                  
ELLENSBURG     CLOUDY    61  38  42 W5        29.86S                  
YAKIMA         CLOUDY    59  36  42 SW9       29.87R                  
SUNNYSIDE ARPT MOCLDY    61  40  45 SW15      29.90R                  
YAKIMA TC      MOCLDY    58  35  42 S13       29.86R                  
$$

WAZ028-034-035-230200-
COLUMBIA BASIN
  
CITY           SKY/WX    TMP DP  RH WIND       PRES   REMARKS
EPHRATA        FAIR      61  40  45 S6        29.87S                  
MOSES LAKE     FAIR      64  39  39 S8        29.88S                  
PASCO          FAIR      68  32  26 SW17      29.89R                  
RICHLAND ARPT  FAIR      68  32  26 SW14      29.88R                  
HERMISTON, OR  FAIR      65  37  35 W16G24    29.89R                  
$$

WAZ036>038-230200-
NORTHEAST WASHINGTON
  
CITY           SKY/WX    TMP DP  RH WIND       PRES   REMARKS
SPOKANE GEIGER FAIR      52  39  61 SE9       29.92R                  
SPOKANE FELTS  FAIR      56  40  55 S10       29.93R                  
FAIRCHILD AFB  SUNNY     53  42  68 SE8       29.91R                  
COEURDALENE,ID FAIR      53  39  59 S7        29.92R                  
DEER PARK      FAIR      53  38  56 SW8       29.91R                  
$$

WAZ029>033-230200-
SOUTHEAST WASHINGTON
  
CITY           SKY/WX    TMP DP  RH WIND       PRES   REMARKS
PULLMAN        FAIR      53  40  61 CALM      29.94S                  
LEWISTON, ID   FAIR      57  41  55 SE7       29.91S                  
WALLA WALLA    FAIR      67  35  30 CALM      29.90S                  
PENDLETON, OR  PTSUNNY   65  32  29 W17       29.90R                  
$$